Time,TemperatureF,DewpointF,PressureIn,WindDirection,WindDirectionDegrees,WindSpeedMPH,WindSpeedGustMPH,Humidity,HourlyPrecipIn,Conditions,Clouds,dailyrainin,SolarRadiationWatts/m^2,SoftwareType,DateUTC
2013-01-11 00:07:00,47.9,47.0,30.30,SE,137,16.0,-999.0,96,-99.99,,,0.02,0,weatherlink.com 1.10,2013-01-11 05:07:00,
2013-01-11 00:22:00,47.7,47.0,30.30,SE,138,10.0,-999.0,97,-99.99,,,0.02,0,weatherlink.com 1.10,2013-01-11 05:22:00,
2013-01-11 00:37:00,47.6,47.0,30.30,SE,129,11.0,-999.0,97,-99.99,,,0.02,0,weatherlink.com 1.10,2013-01-11 05:37:00,
2013-01-11 00:52:00,48.1,47.0,30.29,SE,131,12.0,-999.0,97,-99.99,,,0.02,0,weatherlink.com 1.10,2013-01-11 05:52:00,
2013-01-11 01:07:00,48.9,48.0,30.28,SSE,155,20.0,-999.0,97,-99.99,,,0.02,0,weatherlink.com 1.10,2013-01-11 06:07:00,
2013-01-11 01:22:00,49.2,48.0,30.28,SE,144,11.0,-999.0,97,-99.99,,,0.00,0,weatherlink.com 1.10,2013-01-11 06:22:00,
2013-01-11 01:37:00,49.8,49.0,30.26,SE,132,16.0,-999.0,97,-99.99,,,0.01,0,weatherlink.com 1.10,2013-01-11 06:37:00,
2013-01-11 01:52:00,49.5,49.0,30.26,SSE,148,16.0,-999.0,97,-99.99,,,0.01,0,weatherlink.com 1.10,2013-01-11 06:52:00,
2013-01-11 02:07:00,49.3,49.0,30.26,SE,128,15.0,-999.0,98,-99.99,,,0.01,0,weatherlink.com 1.10,2013-01-11 07:07:00,
2013-01-11 02:22:00,49.0,48.0,30.26,SSE,150,13.0,-999.0,97,-99.99,,,0.01,0,weatherlink.com 1.10,2013-01-11 07:22:00,
2013-01-11 02:37:00,49.3,49.0,30.24,SE,146,17.0,-999.0,98,-99.99,,,0.01,0,weatherlink.com 1.10,2013-01-11 07:37:00,
2013-01-11 02:52:00,50.1,50.0,30.23,SE,126,16.0,-999.0,98,-99.99,,,0.01,0,weatherlink.com 1.10,2013-01-11 07:52:00,
2013-01-11 03:08:00,50.0,50.0,30.23,SSE,156,16.0,-999.0,98,-99.99,,,0.01,0,weatherlink.com 1.10,2013-01-11 08:08:00,
2013-01-11 03:22:00,50.0,50.0,30.23,SE,142,15.0,-999.0,98,-99.99,,,0.01,0,weatherlink.com 1.10,2013-01-11 08:22:00,
2013-01-11 03:37:00,49.9,49.0,30.22,SSE,156,20.0,-999.0,98,-99.99,,,0.01,0,weatherlink.com 1.10,2013-01-11 08:37:00,
2013-01-11 03:52:00,49.6,49.0,30.21,SE,144,20.0,-999.0,98,-99.99,,,0.02,0,weatherlink.com 1.10,2013-01-11 08:52:00,
2013-01-11 04:07:00,49.5,49.0,30.21,SSE,151,15.0,-999.0,98,-99.99,,,0.02,0,weatherlink.com 1.10,2013-01-11 09:07:00,
2013-01-11 04:22:00,49.9,49.0,30.21,SSE,149,13.0,-999.0,98,-99.99,,,0.03,0,weatherlink.com 1.10,2013-01-11 09:22:00,
2013-01-11 04:37:00,49.9,49.0,30.21,SE,146,9.0,-999.0,98,-99.99,,,0.04,0,weatherlink.com 1.10,2013-01-11 09:37:00,
2013-01-11 04:52:00,49.7,49.0,30.22,SE,126,12.0,-999.0,98,-99.99,,,0.04,0,weatherlink.com 1.10,2013-01-11 09:52:00,
2013-01-11 05:07:00,49.4,49.0,30.22,SE,136,10.0,-999.0,98,-99.99,,,0.04,0,weatherlink.com 1.10,2013-01-11 10:07:00,
2013-01-11 05:22:00,49.2,49.0,30.20,SE,132,15.0,-999.0,98,-99.99,,,0.04,0,weatherlink.com 1.10,2013-01-11 10:22:00,
2013-01-11 05:37:00,49.1,49.0,30.19,SE,140,18.0,-999.0,98,-99.99,,,0.04,0,weatherlink.com 1.10,2013-01-11 10:37:00,
2013-01-11 05:52:00,49.1,49.0,30.19,SE,144,15.0,-999.0,98,-99.99,,,0.05,0,weatherlink.com 1.10,2013-01-11 10:52:00,
2013-01-11 06:07:00,49.1,49.0,30.19,SE,137,11.0,-999.0,98,-99.99,,,0.07,0,weatherlink.com 1.10,2013-01-11 11:07:00,
2013-01-11 06:22:00,49.2,49.0,30.20,ESE,113,14.0,-999.0,98,-99.99,,,0.08,0,weatherlink.com 1.10,2013-01-11 11:22:00,
2013-01-11 06:37:00,49.0,49.0,30.21,SE,138,4.0,-999.0,98,-99.99,,,0.08,0,weatherlink.com 1.10,2013-01-11 11:37:00,
2013-01-11 06:52:00,49.5,49.0,30.21,ESE,116,12.0,-999.0,98,-99.99,,,0.09,0,weatherlink.com 1.10,2013-01-11 11:52:00,
2013-01-11 07:07:00,49.4,49.0,30.21,SE,146,12.0,-999.0,98,-99.99,,,0.10,0,weatherlink.com 1.10,2013-01-11 12:07:00,
2013-01-11 07:22:00,49.8,49.0,30.20,SSE,150,11.0,-999.0,98,-99.99,,,0.13,0,weatherlink.com 1.10,2013-01-11 12:22:00,
2013-01-11 07:37:00,50.0,50.0,30.20,SE,137,14.0,-999.0,98,-99.99,,,0.15,0,weatherlink.com 1.10,2013-01-11 12:37:00,
2013-01-11 07:52:00,49.7,49.0,30.20,SE,135,14.0,-999.0,98,-99.99,,,0.16,0,weatherlink.com 1.10,2013-01-11 12:52:00,
2013-01-11 08:07:00,49.7,49.0,30.21,SSE,149,7.0,-999.0,98,-99.99,,,0.18,0,weatherlink.com 1.10,2013-01-11 13:07:00,
2013-01-11 08:22:00,49.6,49.0,30.21,SE,125,11.0,-999.0,98,-99.99,,,0.21,0,weatherlink.com 1.10,2013-01-11 13:22:00,
2013-01-11 08:37:00,49.5,49.0,30.22,ESE,122,9.0,-999.0,98,-99.99,,,0.21,5,weatherlink.com 1.10,2013-01-11 13:37:00,
2013-01-11 08:52:00,49.4,49.0,30.23,SE,137,12.0,-999.0,98,-99.99,,,0.24,5,weatherlink.com 1.10,2013-01-11 13:52:00,
2013-01-11 09:07:00,49.5,49.0,30.22,SE,126,6.0,-999.0,98,-99.99,,,0.28,12,weatherlink.com 1.10,2013-01-11 14:07:00,
2013-01-11 09:22:00,49.6,49.0,30.24,SE,146,6.0,-999.0,98,-99.99,,,0.31,19,weatherlink.com 1.10,2013-01-11 14:22:00,
2013-01-11 09:37:00,49.4,49.0,30.24,SSE,147,4.0,-999.0,98,-99.99,,,0.33,18,weatherlink.com 1.10,2013-01-11 14:37:00,
2013-01-11 09:52:00,49.4,49.0,30.24,SE,130,6.0,-999.0,98,-99.99,,,0.35,30,weatherlink.com 1.10,2013-01-11 14:52:00,
2013-01-11 10:07:00,49.5,49.0,30.24,SSE,152,4.0,-999.0,99,-99.99,,,0.36,28,weatherlink.com 1.10,2013-01-11 15:07:00,
2013-01-11 10:22:00,49.7,50.0,30.24,SE,133,6.0,-999.0,99,-99.99,,,0.37,33,weatherlink.com 1.10,2013-01-11 15:22:00,
2013-01-11 10:37:00,49.1,49.0,30.24,SE,138,6.0,-999.0,99,-99.99,,,0.37,26,weatherlink.com 1.10,2013-01-11 15:37:00,
2013-01-11 10:52:00,49.0,49.0,30.24,SE,137,7.0,-999.0,99,-99.99,,,0.38,25,weatherlink.com 1.10,2013-01-11 15:52:00,
2013-01-11 11:07:00,48.9,49.0,30.23,SE,140,5.0,-999.0,99,-99.99,,,0.39,25,weatherlink.com 1.10,2013-01-11 16:07:00,
2013-01-11 11:22:00,49.3,49.0,30.23,SE,134,3.0,-999.0,98,-99.99,,,0.40,32,weatherlink.com 1.10,2013-01-11 16:22:00,
2013-01-11 11:38:00,49.3,49.0,30.22,SE,129,10.0,-999.0,98,-99.99,,,0.41,40,weatherlink.com 1.10,2013-01-11 16:38:00,
2013-01-11 11:52:00,49.2,49.0,30.21,SE,131,3.0,-999.0,98,-99.99,,,0.41,47,weatherlink.com 1.10,2013-01-11 16:52:00,
2013-01-11 12:07:00,49.2,49.0,30.20,SE,138,7.0,-999.0,99,-99.99,,,0.42,49,weatherlink.com 1.10,2013-01-11 17:07:00,
2013-01-11 12:22:00,49.1,49.0,30.19,SE,138,6.0,-999.0,99,-99.99,,,0.43,49,weatherlink.com 1.10,2013-01-11 17:22:00,
2013-01-11 12:37:00,49.3,49.0,30.18,SE,138,6.0,-999.0,98,-99.99,,,0.43,47,weatherlink.com 1.10,2013-01-11 17:37:00,
2013-01-11 12:52:00,49.2,49.0,30.18,SE,137,4.0,-999.0,99,-99.99,,,0.44,47,weatherlink.com 1.10,2013-01-11 17:52:00,
2013-01-11 13:07:00,49.4,49.0,30.17,SE,145,5.0,-999.0,98,-99.99,,,0.45,63,weatherlink.com 1.10,2013-01-11 18:07:00,
2013-01-11 13:22:00,49.9,50.0,30.17,SSE,165,4.0,-999.0,99,-99.99,,,0.45,44,weatherlink.com 1.10,2013-01-11 18:22:00,
2013-01-11 13:37:00,50.4,50.0,30.17,SSW,206,5.0,-999.0,99,-99.99,,,0.45,58,weatherlink.com 1.10,2013-01-11 18:37:00,
2013-01-11 13:53:00,50.4,50.0,30.16,South,180,3.0,-999.0,99,-99.99,,,0.46,97,weatherlink.com 1.10,2013-01-11 18:53:00,
2013-01-11 14:07:00,50.3,50.0,30.16,South,183,2.0,-999.0,99,-99.99,,,0.46,120,weatherlink.com 1.10,2013-01-11 19:07:00,
2013-01-11 14:22:00,50.5,50.0,30.15,South,184,6.0,-999.0,99,-99.99,,,0.46,81,weatherlink.com 1.10,2013-01-11 19:22:00,
2013-01-11 14:37:00,50.4,50.0,30.16,SSW,197,4.0,-999.0,99,-99.99,,,0.46,49,weatherlink.com 1.10,2013-01-11 19:37:00,
2013-01-11 14:52:00,50.4,50.0,30.16,SW,219,1.0,-999.0,99,-99.99,,,0.47,46,weatherlink.com 1.10,2013-01-11 19:52:00,
2013-01-11 15:07:00,50.5,50.0,30.15,SW,224,5.0,-999.0,99,-99.99,,,0.47,62,weatherlink.com 1.10,2013-01-11 20:07:00,
2013-01-11 15:22:00,50.8,51.0,30.15,WSW,246,2.0,-999.0,99,-99.99,,,0.47,39,weatherlink.com 1.10,2013-01-11 20:22:00,
2013-01-11 15:37:00,50.9,51.0,30.15,WSW,248,2.0,-999.0,99,-99.99,,,0.47,39,weatherlink.com 1.10,2013-01-11 20:37:00,
2013-01-11 15:52:00,51.1,51.0,30.14,WSW,250,5.0,-999.0,99,-99.99,,,0.47,28,weatherlink.com 1.10,2013-01-11 20:52:00,
2013-01-11 16:07:00,51.0,51.0,30.14,WSW,250,4.0,-999.0,99,-99.99,,,0.48,35,weatherlink.com 1.10,2013-01-11 21:07:00,
2013-01-11 16:22:00,51.2,51.0,30.15,WSW,250,0.0,-999.0,99,-99.99,,,0.48,14,weatherlink.com 1.10,2013-01-11 21:22:00,
2013-01-11 16:37:00,51.4,51.0,30.15,WSW,250,0.0,-999.0,99,-99.99,,,0.49,11,weatherlink.com 1.10,2013-01-11 21:37:00,
2013-01-11 16:52:00,51.9,52.0,30.15,WSW,250,1.0,-999.0,99,-99.99,,,0.49,7,weatherlink.com 1.10,2013-01-11 21:52:00,
2013-01-11 17:07:00,52.4,52.0,30.14,WSW,252,2.0,-999.0,99,-99.99,,,0.49,5,weatherlink.com 1.10,2013-01-11 22:07:00,
2013-01-11 17:22:00,52.9,53.0,30.13,WSW,253,5.0,-999.0,99,-99.99,,,0.49,0,weatherlink.com 1.10,2013-01-11 22:22:00,
2013-01-11 17:37:00,52.9,53.0,30.14,West,262,4.0,-999.0,99,-99.99,,,0.50,0,weatherlink.com 1.10,2013-01-11 22:37:00,
2013-01-11 17:52:00,52.9,53.0,30.14,West,267,1.0,-999.0,99,-99.99,,,0.51,0,weatherlink.com 1.10,2013-01-11 22:52:00,
2013-01-11 18:07:00,53.2,53.0,30.14,West,265,4.0,-999.0,99,-99.99,,,0.51,0,weatherlink.com 1.10,2013-01-11 23:07:00,
2013-01-11 18:23:00,53.6,53.0,30.14,West,268,2.0,-999.0,99,-99.99,,,0.51,0,weatherlink.com 1.10,2013-01-11 23:23:00,
2013-01-11 18:37:00,53.7,54.0,30.15,West,265,2.0,-999.0,99,-99.99,,,0.52,0,weatherlink.com 1.10,2013-01-11 23:37:00,
2013-01-11 19:07:00,54.4,54.0,30.16,West,270,3.0,-999.0,99,-99.99,,,0.56,0,weatherlink.com 1.10,2013-01-12 00:07:00,
2013-01-11 19:22:00,54.8,55.0,30.16,West,275,4.0,-999.0,99,-99.99,,,0.57,0,weatherlink.com 1.10,2013-01-12 00:22:00,
2013-01-11 19:38:00,55.0,55.0,30.16,West,263,2.0,-999.0,99,-99.99,,,0.57,0,weatherlink.com 1.10,2013-01-12 00:38:00,
2013-01-11 19:53:00,54.9,55.0,30.16,West,260,3.0,-999.0,99,-99.99,,,0.58,0,weatherlink.com 1.10,2013-01-12 00:53:00,
2013-01-11 20:08:00,55.0,55.0,30.15,West,261,2.0,-999.0,99,-99.99,,,0.58,0,weatherlink.com 1.10,2013-01-12 01:08:00,
2013-01-11 20:23:00,54.8,55.0,30.15,West,259,7.0,-999.0,99,-99.99,,,0.59,0,weatherlink.com 1.10,2013-01-12 01:23:00,
2013-01-11 20:38:00,54.8,55.0,30.15,West,263,7.0,-999.0,99,-99.99,,,0.59,0,weatherlink.com 1.10,2013-01-12 01:38:00,
2013-01-11 20:53:00,54.8,55.0,30.15,West,267,4.0,-999.0,99,-99.99,,,0.60,0,weatherlink.com 1.10,2013-01-12 01:53:00,
2013-01-11 21:08:00,54.8,55.0,30.16,West,264,4.0,-999.0,99,-99.99,,,0.60,0,weatherlink.com 1.10,2013-01-12 02:08:00,
2013-01-11 21:23:00,54.9,55.0,30.15,West,264,5.0,-999.0,99,-99.99,,,0.61,0,weatherlink.com 1.10,2013-01-12 02:23:00,
2013-01-11 21:53:00,55.3,55.0,30.15,WSW,248,7.0,-999.0,99,-99.99,,,0.62,0,weatherlink.com 1.10,2013-01-12 02:53:00,
2013-01-11 22:08:00,55.1,55.0,30.16,WSW,248,7.0,-999.0,99,-99.99,,,0.62,0,weatherlink.com 1.10,2013-01-12 03:08:00,
2013-01-11 22:23:00,54.7,55.0,30.16,WSW,257,4.0,-999.0,99,-99.99,,,0.63,0,weatherlink.com 1.10,2013-01-12 03:23:00,
2013-01-11 22:38:00,54.9,55.0,30.16,WSW,253,3.0,-999.0,99,-99.99,,,0.63,0,weatherlink.com 1.10,2013-01-12 03:38:00,
2013-01-11 22:53:00,54.7,55.0,30.16,West,265,1.0,-999.0,99,-99.99,,,0.64,0,weatherlink.com 1.10,2013-01-12 03:53:00,
2013-01-11 23:08:00,55.1,55.0,30.16,West,266,3.0,-999.0,99,-99.99,,,0.64,0,weatherlink.com 1.10,2013-01-12 04:08:00,
2013-01-11 23:23:00,55.4,55.0,30.15,West,268,6.0,-999.0,99,-99.99,,,0.65,0,weatherlink.com 1.10,2013-01-12 04:23:00,
2013-01-11 23:38:00,55.4,55.0,30.15,West,261,4.0,-999.0,99,-99.99,,,0.66,0,weatherlink.com 1.10,2013-01-12 04:38:00,
2013-01-11 23:53:00,55.6,55.0,30.15,WSW,254,5.0,-999.0,99,-99.99,,,0.67,0,weatherlink.com 1.10,2013-01-12 04:53:00,